Location: Unspecified
(51.0950°N, 12.9690°E)
Time: 22:22:05
(UTC+00:00)

MOS 1-B Rocket - Pass Details

Date: 28 October 2021
Orbit: 890 x 1605 km, 99.0° (Epoch: 01 December)

Event Time Altitude Azimuth Distance (km) Brightness Sun altitude
Rises 17:06:33 0° 17° (NNE) 3,963 7.0 -12.6°
Reaches altitude 10° 17:09:20 10° 21° (NNE) 2,905 6.2 -13.1°
Maximum altitude 17:15:38 57° 100° (E) 1,135 4.0 -14.1°
Drops below altitude 10° 17:21:14 10° 179° (S) 2,591 6.3 -14.9°
Sets 17:23:35 0° 183° (S) 3,501 7.0 -15.3°
